TimeIST,TemperatureF,Dew PointF,Humidity,Sea Level PressureIn,VisibilityMPH,Wind Direction,Wind SpeedMPH,Gust SpeedMPH,PrecipitationIn,Events,Conditions,WindDirDegrees,DateUTC
1:00 AM,57.2,42.8,59,30.06,1.6,Calm,Calm,-,N/A,,Smoke,0,2012-12-03 19:30:00
2:00 AM,55.4,44.6,67,30.04,1.6,Calm,Calm,-,N/A,,Smoke,0,2012-12-03 20:30:00
2:30 AM,55,47,67,30.04,1,Calm,Calm,,,,Smoke,,2012-12-03 21:00:00
3:00 AM,53.6,44.6,72,30.04,1.6,Calm,Calm,-,N/A,,Smoke,0,2012-12-03 21:30:00
4:00 AM,53.6,42.8,67,30.04,1.6,Calm,Calm,-,N/A,,Smoke,0,2012-12-03 22:30:00
5:00 AM,53.6,42.8,67,30.04,1.6,Calm,Calm,-,N/A,,Smoke,0,2012-12-03 23:30:00
6:00 AM,51.8,42.8,71,30.04,1.6,Calm,Calm,-,N/A,,Smoke,0,2012-12-04 00:30:00
8:00 AM,57.2,44.6,63,30.06,0.9,Calm,Calm,-,N/A,,Partly Cloudy,0,2012-12-04 02:30:00
8:30 AM,59,49,60,30.06,1,Calm,Calm,,,,Smoke,,2012-12-04 03:00:00
9:00 AM,66.2,42.8,43,30.09,1.2,Calm,Calm,-,N/A,,Smoke,0,2012-12-04 03:30:00
10:00 AM,69.8,41.0,35,30.12,1.6,Calm,Calm,-,N/A,,Smoke,0,2012-12-04 04:30:00
11:00 AM,71.6,42.8,35,30.12,1.6,SW,3.5,-,N/A,,Smoke,230,2012-12-04 05:30:00
1:00 PM,77.0,44.6,32,30.06,1.9,WNW,4.6,-,N/A,,Haze,290,2012-12-04 07:30:00
2:00 PM,78.8,44.6,30,30.04,2.2,Variable,5.8,-,N/A,,Haze,0,2012-12-04 08:30:00
2:30 PM,80,45,19,29.96,1,WNW,5.8,,,,Haze,290,2012-12-04 09:00:00
3:00 PM,78.8,44.6,30,30.01,2.2,Variable,4.6,-,N/A,,Haze,0,2012-12-04 09:30:00
4:00 PM,78.8,44.6,30,30.01,2.5,NNW,4.6,-,N/A,,Haze,330,2012-12-04 10:30:00
5:00 PM,77.0,44.6,32,29.98,2.2,Variable,3.5,-,N/A,,Haze,0,2012-12-04 11:30:00
5:30 PM,76,45,22,29.94,1,NNW,2.3,,,,Haze,340,2012-12-04 12:00:00
7:00 PM,66.2,48.2,52,30.01,1.0,Calm,Calm,-,N/A,,Smoke,0,2012-12-04 13:30:00
8:00 PM,64.4,48.2,56,30.04,1.0,Calm,Calm,-,N/A,,Smoke,0,2012-12-04 14:30:00
8:30 PM,64.4,50.0,59,30.04,1.0,Calm,Calm,-,N/A,,Smoke,0,2012-12-04 15:00:00
9:00 PM,66.2,48.2,52,30.04,1.2,Calm,Calm,-,N/A,,Smoke,0,2012-12-04 15:30:00
10:00 PM,62.6,44.6,52,30.04,1.2,Calm,Calm,-,N/A,,Smoke,0,2012-12-04 16:30:00
11:00 PM,62.6,42.8,48,30.06,1.2,Calm,Calm,-,N/A,,Smoke,0,2012-12-04 17:30:00
11:30 PM,60,46,50,30.01,1,Calm,Calm,,,,Smoke,,2012-12-04 18:00:00
11:30 PM,60.8,44.6,55,30.04,1.2,Calm,Calm,-,N/A,,Smoke,0,2012-12-04 18:00:00